Terug naar catalogus

BREEZE-M DEB

LostHEO
NORAD 38567·DEBRIS·🇷🇺 Russia

Gelanceerd Mar 14, 2008 vanaf Baikonur Cosmodrome

Loading…

Volgende Passages (komende 24 uur)

TLE

VerouderdSource: Space-Track

Epoch: Oct 7, 2025, 11:09 UTC

1 38567U 08011N   25280.46512454 -.00000084  00000-0  00000-0 0  9990
2 38567  49.4007  28.5355 6174890 232.1424  58.9944  2.94784744156220

Volg BREEZE-M DEB in realtime met AllMySat

Download on the App Store